Вернуться в каталог

FENGYUN 1C DEB

АктивенSSO
NORAD 31012·DEBRIS·🇨🇳 China

Запущен May 10, 1999 с Taiyuan Satellite Launch Center

Loading…

Ближайшие Пролёты (ближайшие 24 часа)

TLE

СвежийSource: Space-Track

Эпоха: Sep 14, 2026, 00:52 UTC

1 31012U 99025BDE 26257.03637039  .00000193  00000-0  92892-4 0  9992
2 31012  98.8899 165.4256 0082055 171.7682 315.0813 14.28080437 16578

Отслеживайте FENGYUN 1C DEB в реальном времени с AllMySat

Download on the App Store